Location: Eaton Estates
(41.3089°N, 82.0057°W)
Time: 02:20:51
(UTC+00:00)

IRS-P3 - Pass Details

Date: 17 June 2021
Orbit: 813 x 819 km, 98.9° (Epoch: 02 August)

Event Time Altitude Azimuth Distance (km) Brightness Sun altitude
Rises 08:55:09 0° 9° (N) 3,349 8.2 -9.6°
Reaches altitude 10° 08:57:32 10° 5° (N) 2,413 7.3 -9.3°
Maximum altitude 09:02:44 56° 289° (WNW) 965 4.4 -8.6°
Drops below altitude 10° 09:07:54 10° 212° (SSW) 2,395 6.0 -7.8°
Enters shadow 09:08:22 - 211° (SSW) 2,577 6.1 -7.8°
